Location: Ostrava
(49.8330°N, 18.2830°E)
Time: 23:24:23
(UTC+02:00)

Transit 2A - All Passes

Search period start: 17 April 2014 00:00
Search period end: 27 April 2014 00:00
Orbit: 600 x 964 km, 66.7° (Epoch: 16 April)

Date Brightness Start Highest point End Pass type
(mag) Time Alt. Az. Time Alt. Az. Time Alt. Az.
17 Apr - 00:52:08 10° SSE 00:56:50 26° ESE 01:01:14 10° ENE visible
17 Apr - 02:34:02 10° SW 02:39:47 67° NW 02:44:59 10° NNE visible
17 Apr - 04:19:53 10° WNW 04:23:54 20° NNW 04:27:39 10° NNE visible
17 Apr - 06:07:37 10° NNW 06:09:08 11° N 06:10:37 10° NNE daylight
17 Apr - 07:51:32 10° NNW 07:54:32 16° NNE 07:57:23 10° ENE daylight
17 Apr - 09:34:16 10° NNW 09:38:53 53° NE 09:43:11 10° SE daylight
17 Apr - 11:18:08 10° WNW 11:21:42 23° WSW 11:25:07 10° SSW daylight
18 Apr - 00:19:41 10° SSE 00:23:36 19° ESE 00:27:19 10° ENE visible
18 Apr - 02:00:31 10° SW 02:06:20 87° NW 02:11:36 10° NE visible
18 Apr - 03:45:46 10° W 03:50:13 24° NW 03:54:21 10° NNE visible
18 Apr - 05:33:29 10° NNW 05:35:18 12° N 05:37:03 10° NNE daylight
18 Apr - 07:18:13 10° NNW 07:20:45 14° NNE 07:23:11 10° NE daylight
18 Apr - 09:00:55 10° NNW 09:05:22 40° NE 09:09:31 10° ESE daylight
18 Apr - 10:44:23 10° NW 10:48:28 33° WSW 10:52:21 10° S daylight
18 Apr - 23:47:46 10° SE 23:50:25 13° ESE 23:52:58 10° ENE visible
19 Apr - 01:27:09 10° SSW 01:32:56 71° ESE 01:38:10 10° NE visible
19 Apr - 03:11:45 10° W 03:16:35 29° NW 03:21:03 10° NNE visible
19 Apr - 04:59:14 10° NW 05:01:28 13° NNW 05:03:38 10° NNE visible
19 Apr - 06:44:53 10° NNW 06:46:57 12° NNE 06:48:57 10° NE daylight
19 Apr - 08:27:35 10° NNW 08:31:47 31° NE 08:35:44 10° ESE daylight
19 Apr - 10:10:46 10° NW 10:15:11 47° WSW 10:19:21 10° SSE daylight
20 Apr - 00:53:56 10° SSW 00:59:33 53° ESE 01:04:40 10° NE visible
20 Apr - 02:37:49 10° WSW 02:43:00 36° NW 02:47:44 10° NNE visible
20 Apr - 04:24:56 10° NW 04:27:40 14° NNW 04:30:17 10° NNE visible
20 Apr - 06:11:29 10° NNW 06:13:07 11° N 06:14:43 10° NNE daylight
20 Apr - 07:54:16 10° NNW 07:58:09 24° NE 08:01:50 10° E daylight
20 Apr - 09:37:15 10° NW 09:41:51 69° WSW 09:46:10 10° SSE daylight
21 Apr - 00:20:53 10° S 00:26:13 39° ESE 00:31:07 10° NE visible
21 Apr - 02:04:00 10° WSW 02:09:27 46° NW 02:14:24 10° NNE visible
21 Apr - 03:50:39 10° WNW 03:53:53 16° NNW 03:56:57 10° NNE visible
21 Apr - 05:37:57 10° NNW 05:39:17 11° N 05:40:35 10° NNE daylight
21 Apr - 07:20:58 10° NNW 07:24:29 20° NNE 07:27:49 10° ENE daylight
21 Apr - 09:03:48 10° NW 09:08:27 84° NE 09:12:49 10° SE daylight
21 Apr - 10:48:42 10° WNW 10:50:52 13° WSW 10:53:00 10° SW daylight
21 Apr - 23:48:03 10° S 23:52:55 29° ESE 23:57:26 10° NE visible
22 Apr - 01:30:19 10° SW 01:35:57 60° NW 01:41:03 10° NNE visible
22 Apr - 03:16:25 10° WNW 03:20:09 19° NNW 03:23:39 10° NNE visible
22 Apr - 05:04:09 10° NNW 05:05:26 11° N 05:06:40 10° NNE visible
22 Apr - 06:47:40 10° NNW 06:50:46 17° NNE 06:53:43 10° ENE daylight
22 Apr - 08:30:23 10° NNW 08:35:00 61° NE 08:39:19 10° SE daylight
22 Apr - 10:14:28 10° WNW 10:17:42 20° WSW 10:20:50 10° SSW daylight
22 Apr - 23:15:28 10° SSE 23:19:40 21° ESE 23:23:36 10° ENE visible
23 Apr - 00:56:45 10° SW 01:02:29 79° NW 01:07:40 10° NE visible
23 Apr - 02:42:15 10° W 02:46:27 22° NNW 02:50:21 10° NNE visible
23 Apr - 04:30:05 10° NNW 04:31:35 11° N 04:33:02 10° N visible
23 Apr - 06:14:22 10° NNW 06:17:00 14° NNE 06:19:32 10° NE daylight
23 Apr - 07:57:01 10° NNW 08:01:30 44° NE 08:05:42 10° ESE daylight
23 Apr - 09:40:37 10° NW 09:44:29 28° WSW 09:48:11 10° S daylight
23 Apr - 22:43:18 10° SE 22:46:27 15° ESE 22:49:28 10° ENE visible
24 Apr - 00:23:19 10° SSW 00:29:03 80° SE 00:34:14 10° NE visible
24 Apr - 02:08:11 10° W 02:12:47 27° NW 02:17:03 10° NNE visible
24 Apr - 03:55:50 10° NW 03:57:44 12° NNW 03:59:36 10° N visible
24 Apr - 05:41:04 10° NNW 05:43:12 13° NNE 05:45:17 10° NE daylight
24 Apr - 07:23:41 10° NNW 07:27:56 33° NE 07:31:57 10° ESE daylight
24 Apr - 09:06:57 10° NW 09:11:13 40° WSW 09:15:16 10° S daylight
24 Apr - 22:12:23 10° ESE 22:13:17 10° ESE 22:14:10 10° E visible
24 Apr - 23:50:02 10° SSW 23:55:40 59° ESE 00:00:46 10° NE visible
25 Apr - 01:34:12 10° WSW 01:39:11 33° NW 01:43:44 10° NNE visible
25 Apr - 03:21:31 10° NW 03:23:55 13° NNW 03:26:14 10° NNE visible
25 Apr - 05:07:44 10° N 05:09:23 12° N 05:11:00 10° NNE daylight
25 Apr - 06:50:22 10° NNW 06:54:20 26° NE 06:58:05 10° E daylight
25 Apr - 08:33:24 10° NW 08:37:54 59° WSW 08:42:09 10° SSE daylight
25 Apr - 23:16:54 10° S 23:22:18 44° ESE 23:27:14 10° NE visible
26 Apr - 01:00:20 10° WSW 01:05:37 41° NW 01:10:25 10° NNE visible
26 Apr - 02:47:12 10° NW 02:50:08 15° NNW 02:52:55 10° NNE visible
26 Apr - 04:34:18 10° N 04:35:33 11° N 04:36:46 10° NNE visible
26 Apr - 06:17:03 10° NNW 06:20:40 21° NNE 06:24:06 10° E daylight
26 Apr - 07:59:55 10° NW 08:04:31 85° SW 08:08:51 10° SSE daylight
26 Apr - 09:45:28 10° W 09:46:50 11° WSW 09:48:11 10° WSW daylight
26 Apr - 22:43:59 10° S 22:48:59 32° ESE 22:53:36 10° NE visible
